• In Hungary
  • List of Countries
  • For 7 days
  • Water Temperature
  • Satellite Maps
  • Weather Map
  • News
  • Weather Widgets
  • user-avatar
    Login

    Hourly Weather Gron

    Today, 22 September, Saturday

    Time Temperature Precipitation Wind Pressure Humidity
    00:00 +17°C° 0.1 mm 4 mps 713 mmHg 66%
    01:00 +17°C° 0.1 mm 4 mps 713 mmHg 68%
    02:00 +15°C° 1.2 mm 4 mps 714 mmHg 74%
    03:00 +13°C° 1.2 mm 4 mps 715 mmHg 80%
    04:00 +12°C° 1.2 mm 4 mps 715 mmHg 87%
    05:00 +12°C° 1.1 mm 3 mps 716 mmHg 86%
    06:00 +13°C° 1.1 mm 2 mps 716 mmHg 85%
    07:00 +12°C° 1.1 mm 1 mps 717 mmHg 84%
    08:00 +12°C° 0.2 mm 1 mps 717 mmHg 80%
    09:00 +13°C° 0.2 mm 2 mps 717 mmHg 77%
    10:00 +13°C° 0.2 mm 2 mps 718 mmHg 73%
    11:00 +14°C° 0 mm 2 mps 718 mmHg 66%
    12:00 +14°C° 0 mm 3 mps 718 mmHg 59%
    13:00 +15°C° 0 mm 4 mps 718 mmHg 52%
    14:00 +15°C° 0 mm 4 mps 718 mmHg 51%
    15:00 +15°C° 0 mm 4 mps 717 mmHg 49%
    16:00 +15°C° 0 mm 4 mps 717 mmHg 48%
    17:00 +14°C° 0 mm 3 mps 717 mmHg 52%
    18:00 +13°C° 0 mm 3 mps 717 mmHg 56%
    19:00 +12°C° 0 mm 2 mps 717 mmHg 61%
    20:00 +12°C° 0 mm 2 mps 717 mmHg 63%
    21:00 +10°C° 0 mm 2 mps 718 mmHg 66%
    22:00 +10°C° 0 mm 3 mps 718 mmHg 69%
    23:00 +9°C° 0 mm 3 mps 717 mmHg 71%

    Tomorrow, 23 September, Sunday

    Time Temperature Precipitation Wind Pressure Humidity
    00:00 +9°C° 0 mm 3 mps 717 mmHg 74%
    01:00 +9°C° 0 mm 3 mps 717 mmHg 76%
    02:00 +9°C° 0 mm 3 mps 717 mmHg 76%
    03:00 +9°C° 0 mm 3 mps 717 mmHg 76%
    04:00 +9°C° 0 mm 3 mps 717 mmHg 76%
    05:00 +10°C° 0 mm 3 mps 717 mmHg 75%
    06:00 +10°C° 0 mm 3 mps 716 mmHg 74%
    07:00 +10°C° 0 mm 4 mps 716 mmHg 73%
    08:00 +11°C° 0 mm 4 mps 716 mmHg 68%
    09:00 +12°C° 0 mm 4 mps 716 mmHg 62%
    10:00 +13°C° 0 mm 5 mps 717 mmHg 56%
    11:00 +13°C° 0.1 mm 5 mps 716 mmHg 61%
    12:00 +13°C° 0.1 mm 5 mps 716 mmHg 65%
    13:00 +13°C° 0.1 mm 4 mps 715 mmHg 70%
    14:00 +12°C° 0.1 mm 4 mps 715 mmHg 72%
    15:00 +12°C° 0.1 mm 4 mps 714 mmHg 75%
    16:00 +12°C° 0.1 mm 3 mps 713 mmHg 78%
    17:00 +12°C° 0.1 mm 4 mps 713 mmHg 80%
    18:00 +11°C° 0.1 mm 4 mps 712 mmHg 82%
    19:00 +11°C° 0.1 mm 4 mps 711 mmHg 84%
    20:00 +12°C° 0 mm 4 mps 710 mmHg 81%
    21:00 +12°C° 0 mm 5 mps 709 mmHg 78%
    22:00 +13°C° 0 mm 5 mps 708 mmHg 76%
    23:00 +14°C° 0.7 mm 6 mps 706 mmHg 77%

    Day after tomorrow, 24 September, Monday

    Time Temperature Precipitation Wind Pressure Humidity
    00:00 +14°C° 0.7 mm 7 mps 705 mmHg 79%
    01:00 +15°C° 0.7 mm 7 mps 704 mmHg 81%
    02:00 +13°C° 2.9 mm 9 mps 704 mmHg 81%
    03:00 +12°C° 2.9 mm 10 mps 705 mmHg 81%
    04:00 +11°C° 2.9 mm 11 mps 705 mmHg 82%
    05:00 +9°C° 0.4 mm 10 mps 707 mmHg 83%
    06:00 +7°C° 0.4 mm 9 mps 709 mmHg 83%
    07:00 +5°C° 0.4 mm 8 mps 711 mmHg 84%
    08:00 +5°C° 0.2 mm 8 mps 712 mmHg 81%
    09:00 +6°C° 0.2 mm 8 mps 713 mmHg 78%
    10:00 +6°C° 0.2 mm 9 mps 715 mmHg 76%
    11:00 +7°C° 0.1 mm 9 mps 715 mmHg 69%
    12:00 +7°C° 0.1 mm 9 mps 716 mmHg 62%
    13:00 +8°C° 0.1 mm 9 mps 717 mmHg 55%
    14:00 +8°C° 0.1 mm 9 mps 718 mmHg 56%
    15:00 +7°C° 0.1 mm 8 mps 718 mmHg 56%
    16:00 +7°C° 0.1 mm 8 mps 718 mmHg 57%
    17:00 +6°C° 0 mm 7 mps 719 mmHg 60%
    18:00 +5°C° 0 mm 6 mps 719 mmHg 64%
    19:00 +5°C° 0 mm 5 mps 720 mmHg 67%
    20:00 +5°C° 0 mm 4 mps 720 mmHg 69%
    21:00 +4°C° 0 mm 4 mps 721 mmHg 71%
    22:00 +4°C° 0 mm 4 mps 721 mmHg 73%
    23:00 +4°C° 0 mm 4 mps 722 mmHg 75%

    25 September, Tuesday

    Time Temperature Precipitation Wind Pressure Humidity
    00:00 +3°C° 0 mm 3 mps 722 mmHg 77%
    01:00 +3°C° 0 mm 3 mps 722 mmHg 79%
    02:00 +2°C° 0 mm 3 mps 722 mmHg 80%
    03:00 +2°C° 0 mm 3 mps 723 mmHg 81%
    04:00 +2°C° 0 mm 3 mps 723 mmHg 82%
    05:00 +2°C° 0 mm 3 mps 724 mmHg 81%
    06:00 +3°C° 0 mm 3 mps 724 mmHg 80%
    07:00 +3°C° 0 mm 4 mps 725 mmHg 79%
    08:00 +4°C° 0.1 mm 4 mps 725 mmHg 74%
    09:00 +5°C° 0.1 mm 4 mps 726 mmHg 70%
    10:00 +6°C° 0.1 mm 4 mps 726 mmHg 65%
    11:00 +7°C° 0.1 mm 4 mps 726 mmHg 60%
    12:00 +8°C° 0.1 mm 4 mps 727 mmHg 55%
    13:00 +10°C° 0.1 mm 4 mps 727 mmHg 50%
    14:00 +8°C° 0 mm 4 mps 726 mmHg 49%
    15:00 +8°C° 0 mm 4 mps 726 mmHg 48%
    16:00 +8°C° 0 mm 4 mps 726 mmHg 47%
    17:00 +8°C° 0 mm 3 mps 726 mmHg 53%
    18:00 +6°C° 0 mm 2 mps 727 mmHg 59%
    19:00 +5°C° 0 mm 2 mps 727 mmHg 65%
    20:00 +4°C° 0 mm 2 mps 727 mmHg 67%
    21:00 +4°C° 0 mm 2 mps 727 mmHg 69%
    22:00 +3°C° 0 mm 2 mps 727 mmHg 71%
    23:00 +3°C° 0 mm 2 mps 726 mmHg 71%

    26 September, Wednesday

    Time Temperature Precipitation Wind Pressure Humidity
    00:00 +3°C° 0 mm 2 mps 726 mmHg 71%
    01:00 +2°C° 0 mm 3 mps 726 mmHg 71%
    02:00 +2°C° 0 mm 3 mps 726 mmHg 71%
    03:00 +2°C° 0 mm 3 mps 726 mmHg 71%
    04:00 +2°C° 0 mm 3 mps 726 mmHg 71%
    05:00 +3°C° 0 mm 3 mps 726 mmHg 69%
    06:00 +3°C° 0 mm 3 mps 726 mmHg 67%
    07:00 +4°C° 0 mm 3 mps 725 mmHg 65%
    08:00 +6°C° 0 mm 4 mps 726 mmHg 63%
    09:00 +7°C° 0 mm 4 mps 726 mmHg 61%
    10:00 +10°C° 0 mm 4 mps 726 mmHg 59%
    11:00 +11°C° 0 mm 4 mps 725 mmHg 58%
    12:00 +11°C° 0 mm 4 mps 725 mmHg 57%
    13:00 +12°C° 0 mm 4 mps 725 mmHg 55%
    14:00 +12°C° 0 mm 4 mps 725 mmHg 57%
    15:00 +12°C° 0 mm 3 mps 725 mmHg 58%
    16:00 +12°C° 0 mm 3 mps 725 mmHg 60%
    17:00 +10°C° 0 mm 2 mps 725 mmHg 66%
    18:00 +9°C° 0 mm 2 mps 725 mmHg 72%
    19:00 +8°C° 0 mm 1 mps 725 mmHg 78%
    20:00 +8°C° 0 mm 1 mps 725 mmHg 79%
    21:00 +7°C° 0 mm 1 mps 725 mmHg 81%
    22:00 +7°C° 0 mm 1 mps 725 mmHg 82%
    23:00 +7°C° 0 mm 1 mps 725 mmHg 82%

    27 September, Thursday

    Time Temperature Precipitation Wind Pressure Humidity
    00:00 +6°C° 0 mm 2 mps 724 mmHg 82%
    01:00 +5°C° 0 mm 2 mps 724 mmHg 83%
    02:00 +5°C° 0 mm 2 mps 724 mmHg 82%
    03:00 +5°C° 0 mm 2 mps 723 mmHg 82%
    04:00 +5°C° 0 mm 2 mps 723 mmHg 81%
    05:00 +6°C° 0 mm 2 mps 723 mmHg 78%
    06:00 +7°C° 0 mm 2 mps 723 mmHg 74%
    07:00 +7°C° 0 mm 2 mps 723 mmHg 70%
    08:00 +10°C° 0 mm 3 mps 723 mmHg 63%
    09:00 +12°C° 0 mm 3 mps 723 mmHg 55%
    10:00 +14°C° 0 mm 4 mps 723 mmHg 47%
    11:00 +15°C° 0 mm 4 mps 722 mmHg 45%
    12:00 +17°C° 0 mm 4 mps 722 mmHg 43%
    13:00 +18°C° 0 mm 4 mps 721 mmHg 41%
    14:00 +18°C° 0 mm 4 mps 721 mmHg 43%
    15:00 +17°C° 0 mm 4 mps 720 mmHg 46%
    16:00 +17°C° 0 mm 4 mps 720 mmHg 49%
    17:00 +14°C° 0 mm 4 mps 719 mmHg 55%
    18:00 +12°C° 0 mm 3 mps 719 mmHg 61%
    19:00 +10°C° 0 mm 3 mps 719 mmHg 67%
    20:00 +9°C° 0 mm 3 mps 719 mmHg 66%
    21:00 +9°C° 0 mm 3 mps 719 mmHg 65%
    22:00 +8°C° 0 mm 3 mps 718 mmHg 64%
    23:00 +8°C° 0 mm 3 mps 718 mmHg 64%
    Show more